[[{"header":{"parameterUnit":"m.s-1","parameterCategory":1,"la1":30.2991,"la2":30.254,"lo1":-89.0895,"lo2":-89.0444,"dy":0.0017,"dx":0.0017,"nx":28,"ny":28,"refTime":"2025-03-05T09:00:00:Z","depth":0,"parameterNumber":2,"parameterNumberName":"U-component_of_WINDS"},"data":[0,0,0,0,0,0,0,0,0,0,0,0,0,0,0,0,0,0,0,0,0,0,0,0,0,0,0,0,0,0,0,0,0,0,0,0,0,0,0,0,0,0,0,0,0,0,0,0,0,0,0,0,0,0,0,0,0,0,9.7857,9.7859,0,9.8079,9.8082,9.8084,9.8022,9.8017,9.8013,9.8009,9.8239,9.8249,9.8259,0,0,0,0,0,0,0,0,0,0,0,0,0,9.7382,9.7391,9.7857,9.7859,9.7862,9.8079,9.8082,9.8085,9.8023,9.8017,9.8012,9.8007,9.8235,9.8248,9.826,0,0,0,0,0,0,0,0,0,0,0,0,0,9.7595,9.7394,9.7856,9.7857,9.786,9.8078,9.8082,9.8086,9.8024,9.8017,9.801,9.8004,9.8231,9.8246,9.8262,9.8494,0,0,9.8309,9.8316,0,0,0,0,0,0,0,0,9.7583,9.7612,9.7854,9.7858,9.7861,9.8016,9.7999,9.8223,9.8026,9.7962,9.8009,9.8001,9.817,9.819,9.8247,9.8504,9.8514,9.831,9.832,9.8327,9.8331,0,0,0,0,0,0,0,9.7568,9.7602,9.7945,9.7858,9.7862,9.7848,9.7871,9.8041,9.8101,9.7967,9.7963,9.799,9.8171,9.8232,9.8252,9.8518,9.831,9.8324,9.8333,9.8339,9.898,9.8988,0,0,0,0,0,0,9.755,9.759,9.7938,9.7951,9.7702,9.7862,9.7887,9.7973,9.8099,9.8112,9.7995,9.7986,9.8209,9.8234,9.826,9.8542,9.8326,9.8341,9.835,9.8973,9.8982,9.899,0,0,0,0,0,0,9.754,9.7582,9.7929,9.777,9.7813,9.7877,9.7974,9.7981,9.8042,9.8121,9.8132,9.8047,9.8205,9.8238,9.8437,9.8549,9.8348,9.8362,9.8964,9.8975,9.8986,9.9107,0,0,0,0,0,0,9.7527,9.7579,9.7666,9.7772,9.7822,9.8101,9.7981,9.799,9.8069,9.8059,9.8172,9.8185,9.8202,9.8414,9.8452,9.8567,9.8374,9.8954,9.8969,9.8982,9.9094,9.9122,9.9146,0,0,0,0,0,9.751,9.7691,9.7671,9.7713,9.7933,9.8107,9.8136,9.8151,9.8078,9.8168,9.8219,9.8181,9.8531,9.8435,9.8477,9.8599,9.8947,9.8965,9.8981,9.9082,9.9116,9.9145,0,0,0,0,0,0,9.7597,9.7705,9.7684,9.7904,9.7997,9.8096,9.821,9.8187,9.8303,9.8288,9.8304,9.833,9.8534,9.8586,9.8477,9.8832,9.8728,9.8755,9.879,9.8823,9.8849,9.8833,9.8387,0,0,0,0,0,9.7642,9.7774,9.7861,9.8048,9.8095,9.8145,9.8222,9.8226,9.8323,9.8362,9.8427,9.8524,9.8656,9.8742,9.8867,9.9101,9.9126,9.9205,9.9231,9.9252,9.9276,9.9406,9.9443,9.9047,9.9047,9.9047,0,0,9.7735,9.7811,9.7893,9.8067,9.8139,9.8278,9.8178,9.8328,9.8431,9.8385,9.8577,9.8629,9.8737,9.8955,9.9054,9.9005,9.9391,9.9274,9.9291,9.9303,9.9428,9.9465,9.9499,9.9059,9.9057,9.9055,0,0,9.7977,9.8047,9.8211,9.8286,9.8397,9.8429,9.8469,9.8573,9.8606,9.8798,9.8768,9.8891,9.9117,9.9197,9.9267,9.9543,9.9513,9.9583,9.9719,9.9846,9.9878,9.9905,10.0006,10.0042,9.9606,9.9606,9.9606,0,9.808,9.8286,9.8298,9.8452,9.8531,9.8495,9.8663,9.8735,9.8882,9.8938,9.888,9.9165,9.9236,9.9473,9.9541,9.9598,9.9646,9.957,9.9872,9.99,9.9926,10.0023,10.006,9.9614,9.9613,9.9612,9.9612,0,9.8409,9.8552,9.8672,9.8815,9.8907,9.9066,9.9105,9.9197,9.9194,9.9233,9.9431,9.9515,9.9658,9.9715,9.9713,9.9954,9.992,9.9867,9.9764,9.9972,10.0063,10.0099,9.9625,9.9623,9.962,9.9618,0,0,9.8711,9.886,9.8904,9.897,9.9091,9.9203,9.9362,9.9502,9.9582,9.9685,9.9821,10.0014,9.9967,10.0047,10.0054,10.0165,10.0382,10.0099,10.0102,10.0151,10.0656,10.0696,10.0738,10.0363,10.037,10.0375,10.0647,0,9.8965,9.9245,9.9262,9.9516,9.9651,9.962,9.976,9.985,9.9891,10.0013,10.0058,10.0196,10.0122,10.0171,10.0279,10.0332,10.0484,10.0313,10.0491,10.0497,10.0466,10.0785,10.0828,10.108,10.0683,10.0689,10.0693,0,9.9299,9.9413,9.9681,9.9786,9.9843,9.9967,10.0099,10.0214,10.0317,10.0339,10.043,10.0422,10.0588,10.0478,10.0709,10.0592,10.0666,10.0704,10.0714,10.0732,10.0609,10.0814,10.1161,10.12,10.0749,10.0744,10.074,0,9.9496,9.9716,9.9906,9.9963,10.0089,10.0178,10.0235,10.0331,10.0415,10.053,10.0585,10.0718,10.0791,10.0895,10.0925,10.0841,10.1156,10.1047,10.1181,10.118,10.1249,10.1245,10.1614,10.1294,10.1293,10.1293,10.1292,0,9.978,9.9946,9.9996,10.0113,10.0299,10.0317,10.0501,10.0553,10.0639,10.0767,10.0748,10.0868,10.0899,10.1026,10.105,10.1238,10.1271,10.1295,10.13,10.1298,10.1296,10.1348,10.1332,10.1303,10.13,10.1298,10.1297,0,10.0032,10.0072,10.0277,10.038,10.041,10.0543,10.0632,10.0745,10.0784,10.0946,10.0985,10.1047,10.1196,10.1235,10.1413,10.1429,10.1652,10.1639,10.1618,10.1618,10.175,10.1738,10.2168,10.2226,10.1866,10.1869,10.1872,0,10.0211,10.0338,10.0455,10.0539,10.06,10.0735,10.0821,10.0845,10.0936,10.1064,10.1163,10.1309,10.1427,10.1667,10.1729,10.1865,10.1857,10.1998,10.1878,10.1873,10.1862,10.1855,10.1869,10.2022,10.2026,10.2029,10.2031,0,10.0526,10.054,10.0664,10.0797,10.09,10.1005,10.1106,10.1177,10.1215,10.1318,10.147,10.1562,10.1744,10.1891,10.2029,10.2089,10.2069,10.2069,10.2107,10.2108,10.2091,10.2104,10.1682,10.2059,10.2056,10.2054,10.2053,10.2052,10.0749,10.0861,10.0962,10.1102,10.118,10.1276,10.1388,10.1442,10.1568,10.1718,10.1725,10.1891,10.1993,10.2176,10.2245,10.2376,10.2333,10.2389,10.2403,10.2417,10.2429,10.2068,10.2401,10.24,10.2399,10.2399,10.2398,0,10.1065,10.1128,10.1257,10.1399,10.151,10.1479,10.159,10.1686,10.1831,10.1928,10.2045,10.2221,10.2364,10.2437,10.2579,10.2671,10.2665,10.2707,10.2702,10.2717,10.2458,10.2411,10.271,10.271,10.271,10.271,10.271,10.271,10.1243,10.1432,10.1459,10.1688,10.1751,10.1913,10.1979,10.2068,10.2145,10.2342,10.2461,10.2507,10.2596,10.2745,10.2875,10.2893,10.2947,10.2996,10.3009,10.2766,10.2735,10.2704,10.2661,10.3007,10.3007,10.3258,10.326,10.3262]},{"header":{"parameterUnit":"m.s-1","parameterCategory":1,"la1":30.2991,"la2":30.254,"lo1":-89.0895,"lo2":-89.0444,"dy":0.0017,"dx":0.0017,"nx":28,"ny":28,"refTime":"2025-03-05T09:00:00:Z","depth":0,"parameterNumber":3,"parameterNumberName":"V-component_of_WINDS"},"data":[0,0,0,0,0,0,0,0,0,0,0,0,0,0,0,0,0,0,0,0,0,0,0,0,0,0,0,0,0,0,0,0,0,0,0,0,0,0,0,0,0,0,0,0,0,0,0,0,0,0,0,0,0,0,0,0,0,0,-3.0301,-3.0301,0,-3.0346,-3.0347,-3.0347,-3.0339,-3.0338,-3.0337,-3.0336,-3.0381,-3.0383,-3.0385,0,0,0,0,0,0,0,0,0,0,0,0,0,-3.0206,-3.0208,-3.0301,-3.0301,-3.0302,-3.0346,-3.0347,-3.0347,-3.0339,-3.0338,-3.0337,-3.0336,-3.0381,-3.0383,-3.0385,0,0,0,0,0,0,0,0,0,0,0,0,0,-3.0249,-3.0209,-3.0301,-3.0303,-3.0304,-3.0346,-3.0347,-3.0348,-3.0339,-3.0338,-3.0337,-3.0335,-3.038,-3.0383,-3.0386,-3.0428,0,0,-3.0395,-3.0396,0,0,0,0,0,0,0,0,-3.0247,-3.0252,-3.0302,-3.0303,-3.0304,-3.0336,-3.033,-3.0374,-3.0339,-3.0326,-3.0336,-3.0335,-3.0367,-3.0371,-3.0382,-3.043,-3.0432,-3.0395,-3.0397,-3.0398,-3.0399,0,0,0,0,0,0,0,-3.0244,-3.025,-3.0319,-3.0303,-3.0304,-3.0302,-3.0306,-3.0338,-3.0352,-3.0327,-3.0326,-3.0332,-3.0367,-3.0379,-3.0383,-3.0433,-3.0395,-3.0397,-3.0399,-3.04,-3.052,-3.0521,0,0,0,0,0,0,-3.024,-3.0248,-3.0317,-3.032,-3.0272,-3.0304,-3.031,-3.0327,-3.0352,-3.0355,-3.0333,-3.0331,-3.0375,-3.038,-3.0385,-3.0437,-3.0398,-3.0401,-3.0402,-3.0518,-3.052,-3.0521,0,0,0,0,0,0,-3.0238,-3.0246,-3.0315,-3.0284,-3.0293,-3.0307,-3.0326,-3.0328,-3.034,-3.0357,-3.0359,-3.0342,-3.0374,-3.038,-3.0418,-3.0438,-3.0402,-3.0405,-3.0516,-3.0519,-3.0521,-3.0541,0,0,0,0,0,0,-3.0235,-3.0246,-3.0262,-3.0284,-3.0294,-3.0348,-3.0328,-3.033,-3.0345,-3.0344,-3.0367,-3.0369,-3.0374,-3.0413,-3.0421,-3.0442,-3.0407,-3.0515,-3.0517,-3.052,-3.0539,-3.0544,-3.0548,0,0,0,0,0,-3.0232,-3.0265,-3.0263,-3.0271,-3.0315,-3.0349,-3.0355,-3.036,-3.0347,-3.0364,-3.0375,-3.0368,-3.0435,-3.0417,-3.0425,-3.0447,-3.0513,-3.0517,-3.052,-3.0536,-3.0543,-3.0548,0,0,0,0,0,0,-3.0244,-3.0268,-3.0266,-3.0307,-3.0326,-3.0348,-3.0368,-3.0366,-3.0388,-3.0386,-3.0391,-3.0396,-3.0434,-3.0445,-3.0425,-3.0491,-3.0472,-3.0477,-3.0482,-3.0488,-3.0493,-3.0489,-3.0409,0,0,0,0,0,-3.0251,-3.0277,-3.0297,-3.0332,-3.0341,-3.0353,-3.0368,-3.0371,-3.0391,-3.0398,-3.0412,-3.0431,-3.0457,-3.0473,-3.0497,-3.054,-3.0545,-3.056,-3.0564,-3.0568,-3.0572,-3.0597,-3.0603,-3.0532,-3.0532,-3.0532,0,0,-3.0267,-3.0283,-3.0299,-3.0334,-3.0349,-3.0376,-3.036,-3.0389,-3.0409,-3.0403,-3.0439,-3.045,-3.0472,-3.0512,-3.0531,-3.0522,-3.0593,-3.0572,-3.0575,-3.0577,-3.0601,-3.0607,-3.0613,-3.0534,-3.0534,-3.0533,0,0,-3.0309,-3.0324,-3.0355,-3.0371,-3.0394,-3.0402,-3.041,-3.0432,-3.0439,-3.0476,-3.0472,-3.0496,-3.0539,-3.0556,-3.0569,-3.062,-3.0615,-3.0627,-3.0651,-3.0675,-3.0681,-3.0686,-3.0704,-3.0711,-3.0631,-3.0631,-3.0631,0,-3.0325,-3.0365,-3.0371,-3.0401,-3.0417,-3.0413,-3.0445,-3.046,-3.049,-3.0501,-3.0491,-3.0546,-3.0561,-3.0606,-3.0618,-3.0629,-3.0638,-3.0624,-3.068,-3.0685,-3.069,-3.0707,-3.0714,-3.0633,-3.0633,-3.0632,-3.0632,0,-3.0384,-3.0413,-3.0435,-3.0465,-3.0483,-3.0514,-3.0524,-3.0542,-3.0544,-3.0553,-3.0591,-3.0608,-3.0637,-3.0648,-3.0648,-3.0693,-3.0687,-3.0679,-3.066,-3.0698,-3.0714,-3.0721,-3.0635,-3.0634,-3.0634,-3.0633,0,0,-3.0434,-3.0468,-3.0476,-3.049,-3.0517,-3.0539,-3.0569,-3.0598,-3.0613,-3.0635,-3.0661,-3.0698,-3.0691,-3.0707,-3.071,-3.0731,-3.0771,-3.072,-3.072,-3.0729,-3.0822,-3.0828,-3.0836,-3.0768,-3.0769,-3.077,-3.082,0,-3.0479,-3.0533,-3.054,-3.0589,-3.0615,-3.0613,-3.064,-3.066,-3.0669,-3.0693,-3.0704,-3.0731,-3.0719,-3.0729,-3.0749,-3.0761,-3.0789,-3.0758,-3.0792,-3.0794,-3.0787,-3.0845,-3.0851,-3.0898,-3.0827,-3.0828,-3.0829,0,-3.0538,-3.0562,-3.0614,-3.0638,-3.0649,-3.0673,-3.07,-3.0723,-3.0746,-3.0751,-3.077,-3.0771,-3.0803,-3.0784,-3.0828,-3.0807,-3.0822,-3.083,-3.0832,-3.0835,-3.0813,-3.085,-3.0912,-3.0919,-3.0839,-3.0838,-3.0837,0,-3.057,-3.0615,-3.0652,-3.0664,-3.0693,-3.071,-3.0723,-3.0744,-3.0761,-3.0785,-3.0796,-3.0823,-3.0838,-3.0859,-3.0867,-3.0852,-3.0912,-3.0893,-3.0918,-3.0917,-3.093,-3.0929,-3.0996,-3.0939,-3.0939,-3.0939,-3.0939,0,-3.0619,-3.0651,-3.0667,-3.0689,-3.0725,-3.0733,-3.0768,-3.078,-3.0799,-3.0825,-3.0824,-3.0848,-3.0857,-3.0883,-3.0889,-3.0926,-3.0932,-3.0938,-3.0939,-3.0938,-3.0938,-3.0948,-3.0945,-3.0941,-3.094,-3.094,-3.094,0,-3.066,-3.0672,-3.0713,-3.0737,-3.0744,-3.0769,-3.079,-3.0813,-3.0823,-3.0855,-3.0863,-3.0879,-3.0908,-3.0919,-3.0955,-3.0959,-3.1002,-3.1001,-3.0995,-3.0995,-3.1019,-3.1017,-3.1095,-3.1106,-3.1042,-3.1043,-3.1043,0,-3.0691,-3.0716,-3.0743,-3.0761,-3.0774,-3.0802,-3.082,-3.0829,-3.0847,-3.0875,-3.0894,-3.0924,-3.0949,-3.0997,-3.1011,-3.1039,-3.1039,-3.1064,-3.1043,-3.1041,-3.104,-3.1038,-3.1041,-3.1068,-3.1069,-3.1069,-3.107,0,-3.0745,-3.075,-3.0776,-3.0805,-3.0826,-3.0849,-3.0871,-3.0885,-3.0897,-3.0918,-3.0949,-3.0968,-3.1006,-3.1036,-3.1065,-3.1078,-3.1076,-3.1076,-3.1084,-3.1083,-3.1079,-3.1082,-3.1006,-3.1074,-3.1074,-3.1074,-3.1073,-3.1073,-3.0783,-3.0805,-3.0828,-3.0857,-3.0875,-3.0896,-3.0919,-3.0932,-3.0958,-3.099,-3.0993,-3.1027,-3.105,-3.1089,-3.1103,-3.113,-3.1123,-3.1133,-3.1136,-3.1138,-3.114,-3.1074,-3.1135,-3.1135,-3.1135,-3.1135,-3.1135,0,-3.0837,-3.0852,-3.0879,-3.091,-3.0934,-3.0931,-3.0955,-3.0975,-3.1005,-3.1026,-3.1051,-3.1087,-3.1116,-3.1134,-3.1164,-3.1182,-3.1182,-3.1189,-3.1188,-3.1191,-3.1145,-3.1136,-3.1189,-3.1189,-3.1189,-3.1189,-3.1189,-3.1189,-3.0868,-3.0906,-3.0914,-3.0961,-3.0976,-3.1009,-3.1024,-3.1043,-3.106,-3.1101,-3.1126,-3.1137,-3.1158,-3.1189,-3.1216,-3.1221,-3.1232,-3.124,-3.1244,-3.12,-3.1194,-3.1189,-3.1181,-3.1242,-3.1242,-3.1288,-3.1289,-3.1289]}]]